Presure
193 199 202 200 185 189 186 196 201 209 215 217 221 221 222 228 237 275 312 263 184 180 182 182 177 177 177 181 187 191 192 159 170 170 171 180 175 183 186 183 180 168 175
196 203 199 198 187 189 183 180 192 192 199 203 201 201 199 201 203 213 216 220 269 296 271 253 241 227 149 215 213 205 219 192 190 184 153 158 167 176 172 174 181 185 178
210 199 196 192 190 189 191 183 178 183 190 192 192 193 192 191 191 192 193 195 203 164 212 270 282 261 248 235 226 220 215 218 224 193 178 179 173 173 168 171 173 173 173
201 198 195 194 134 209 193 193 183 183 180 179 180 183 184 184 184 186 186 185 186 170 193 195 198 201 203 208 238 261 253 210 233 224 224 223 209 193 183 181 175 161 172
194 196 198 203 203 202 205 209 220 174 174 175 176 178 179 180 179 179 180 181 181 182 181 180 177 186 189 191 193 196 199 202 205 215 225 235 238 232 227 226 229 179 231
193 194 198 196 192 191 196 198 194 195 192 172 173 177 180 178 176 175 174 186 182 180 180 180 181 182 183 183 184 188 188 189 190 191 193 197 199 200 201 202 203 205 207
187 187 188 184 184 184 185 186 187 186 189 188 187 184 183 179 155 185 180 179 180 183 198 179 186 189 189 184 182 181 182 182 183 184 184 186 187 187 188 187 192 197 199
176 178 180 176 175 178 180 178 178 183 181 182 183 183 183 184 186 187 183 184 189 190 181 184 176 177 178 179 180 183 179 178 172 180 178 174 177 168 170 175 178 149 180
174 183 187 186 186 182 174 174 183 181 181 184 180 180 187 188 185 188 186 191 101 189 189 188 193 186 193 200 196 173 170 166 198 160 173 175 232 230 190 183 185 186 187
181 182 131 184 185 95 199 197 200 191 212 219 222 223 224 221 221 216 231 190 236 233 222 224 219 238 236 181 244 232 231 230 230 240 234 235 238 233 234 238 238 240 236
197 172 151 184 196 195 137 196 200 203 209 206 216 218 223 220 222 220 157 226 202 232 238 131 227 231 232 227 228 225 235 238 252 236 239 239 252 263 249 251 267 283 264
194 194 201 205 211 135 211 211 208 212 216 220 219 209 209 223 223 224 227 225 221 222 216 186 222 231 227 231 229 232 234 245 250 243 253 252 257 298 305 300 304 232 335
203 201 202 206 210 211 213 220 226 169 225 226 229 231 230 225 226 228 230 229 215 214 229 231 226 233 242 241 247 247 251 255 257 271 304 318 331 341 339 341 334 337 347
216 215 215 215 215 218 221 224 214 221 215 215 217 224 226 226 226 224 218 226 229 228 232 235 241 249 241 253 245 265 278 291 312 316 321 308 313 319 313 312 301 305 314
221 223 227 227 174 226 224 222 216 213 221 220 223 223 224 175 227 184 229 228 232 203 240 243 247 255 258 285 288 301 295 316 309 314 309 306 315 324 316 279 288 302 258
218 209 209 210 215 219 220 225 221 215 223 226 225 135 234 233 231 239 243 235 239 250 255 263 276 285 299 300 301 318 305 315 311 315 322 299 289 304 263 312 317 251 358
215 220 220 220 220 223 228 228 91 227 224 220 234 233 239 240 238 237 250 250 247 259 284 298 281 291 293 317 299 317 288 297 197 315 308 314 293 368 294 347 367 313 454
223 222 221 220 219 227 230 234 233 231 234 237 235 232 240 244 249 247 257 265 277 278 324 332 310 320 317 314 311 291 314 344 308 308 286 301 321 332 385 387 479 471 469
231 228 226 228 227 228 227 227 234 235 239 241 249 249 250 272 255 262 281 307 293 333 310 343 322 330 323 350 349 311 301 304 349 364 337 425 459 466 464 458 444 443 451
243 243 230 241 239 246 239 239 245 251 256 260 269 336 289 298 278 277 307 313 329 330 292 321 330 328 291 296 315 322 315 376 406 326 441 445 444 439 434 430 433 435 431
284 293 313 311 299 290 337 287 268 281 304 346 328 305 335 341 344 337 340 342 270 349 258 355 352 321 364 398 384 440 411 423 446 442 433 428 430 428 425 425 427 424 423
349 353 357 352 319 346 329 343 340 315 335 331 312 311 344 344 347 348 355 350 352 342 360 362 399 414 416 425 428 432 439 437 430 429 428 428 415 412 417 420 416 411 413
323 322 323 324 338 340 340 338 336 333 328 326 344 345 348 348 349 350 363 354 367 392 400 412 423 424 426 442 450 442 431 428 433 434 389 374 392 398 397 396 422 404 379
401 403 395 378 364 359 361 352 349 356 356 368 371 389 389 392 408 413 393 412 409 408 420 420 424 443 439 437 428 445 429 403 404 397 387 385 381 375 376 379 382 397 408
466 458 465 433 427 423 416 429 438 436 431 438 433 424 424 424 420 413 412 405 405 411 420 439 428 436 417 404 399 400 393 381 401 511 504 506 503 501 497 494 493 381 379
462 458 454 453 451 450 446 440 421 425 422 416 411 399 395 403 411 413 417 423 424 418 450 432 408 400 398 392 377 416 499 501 502 499 500 505 511 517 512 513 503 480 461
Wind_Speed
75 73 70 70 73 70 65 58 54 50 49 49 48 51 52 50 48 49 59 70 86 87 88 89 92 93 94 92 90 89 89 83 89 87 84 84 85 84 85 87 89 89 86
77 72 70 70 74 71 68 64 60 59 56 55 56 57 58 59 58 55 55 55 58 67 72 76 83 89 78 92 91 92 92 92 92 91 80 84 87 88 89 89 88 88 91
76 74 72 73 74 72 70 70 71 65 61 61 61 62 64 65 66 68 69 68 65 82 63 66 71 78 81 84 87 89 90 91 94 95 96 95 94 95 95 95 95 95 94
77 75 75 77 59 72 74 74 73 68 68 70 71 70 69 70 72 74 75 76 76 73 73 73 73 72 71 70 75 81 84 85 90 93 95 98 100 102 101 101 101 96 100
79 79 79 76 76 75 74 72 70 74 76 78 79 78 79 81 83 84 84 84 84 85 86 89 92 85 82 81 81 81 81 82 82 83 84 87 91 93 95 96 95 100 98
83 82 81 78 79 81 79 75 75 77 81 86 87 86 86 88 90 92 93 89 91 92 93 94 94 93 92 92 93 92 93 94 94 94 94 93 94 95 97 98 98 98 101
87 85 84 85 86 88 84 83 83 84 85 88 90 92 93 95 85 96 98 98 98 98 95 101 100 99 99 99 100 102 103 104 104 104 105 105 106 107 107 107 107 106 107
91 91 92 92 94 94 93 94 93 93 93 94 97 98 98 99 100 100 102 101 101 102 106 106 109 109 110 109 109 110 111 112 111 112 114 115 114 112 112 113 115 94 113
100 99 99 100 102 103 103 102 102 101 102 103 103 103 105 106 105 105 105 105 59 106 108 110 110 112 112 112 115 118 115 116 115 106 119 121 115 118 123 122 123 122 123
106 105 57 105 106 33 111 109 110 110 111 111 111 111 109 108 110 109 110 111 108 106 106 108 110 111 109 106 109 108 110 114 114 112 113 116 119 122 122 123 123 125 127
116 97 78 107 114 113 69 114 116 116 117 115 116 116 116 113 113 112 77 114 100 113 114 67 111 112 113 113 114 116 118 120 124 122 119 121 120 127 126 127 128 125 126
117 119 122 122 124 65 124 124 122 123 124 122 120 116 116 121 119 119 117 117 116 114 112 102 115 120 117 118 120 122 123 128 131 125 128 125 127 131 139 140 139 137 134
126 125 126 127 127 127 126 128 126 93 127 127 126 124 125 123 124 126 128 125 120 119 126 127 124 129 135 135 138 138 141 145 142 148 141 135 128 123 125 125 130 130 128
133 132 132 132 131 130 130 129 124 126 124 124 126 129 130 129 130 130 126 131 134 132 135 138 141 146 139 149 139 151 149 147 136 132 128 133 132 132 132 130 118 121 120
132 133 133 134 94 133 133 132 129 127 132 131 134 134 134 100 138 109 140 139 141 119 146 149 149 150 149 150 148 140 141 133 136 132 135 132 137 136 128 107 112 114 97
132 131 131 132 134 136 136 137 137 131 137 139 139 70 144 146 143 147 147 138 145 154 158 158 153 152 145 143 142 130 137 133 131 133 133 130 118 126 105 128 129 95 127
138 139 140 140 140 141 144 145 43 145 144 139 150 150 151 152 149 147 158 158 155 162 155 150 153 150 147 140 145 140 136 135 87 136 134 137 123 124 109 129 120 115 96
143 143 145 144 144 149 150 151 152 151 152 154 153 151 157 158 161 159 165 164 159 156 138 132 141 139 142 144 144 135 143 132 137 137 114 132 136 132 118 103 81 76 73
151 148 147 151 149 153 152 152 156 156 159 159 162 163 162 159 163 162 153 141 148 125 138 124 131 134 135 129 129 127 134 130 124 112 115 104 87 82 80 77 76 74 69
156 157 146 158 157 160 158 160 163 163 162 164 163 130 152 147 156 156 135 130 120 121 138 127 124 124 122 119 123 129 123 112 105 110 91 85 81 79 75 73 70 66 63
149 144 128 131 140 141 126 149 148 146 128 113 122 134 115 113 115 114 114 115 138 113 117 115 114 115 127 128 123 103 109 98 87 85 82 79 77 75 74 71 68 63 60
118 118 119 119 120 117 118 115 113 117 112 110 114 116 111 111 112 113 114 115 114 113 120 123 123 112 107 103 100 95 90 86 84 81 78 76 74 71 70 68 64 60 58
118 119 119 119 119 119 118 117 116 114 112 113 115 115 115 114 114 113 114 115 116 119 112 105 100 97 96 92 87 86 83 81 79 76 74 72 70 69 68 65 64 60 56
110 111 111 111 112 114 112 113 113 114 114 115 113 112 111 109 95 93 104 92 94 97 95 94 93 91 86 83 80 77 76 77 76 74 74 71 69 68 65 62 60 57 55
86 86 81 91 91 94 95 87 81 78 79 67 67 73 73 73 75 80 83 87 89 89 89 87 84 81 79 80 79 79 79 78 77 60 60 57 56 54 54 53 51 55 53
59 59 60 60 59 57 56 57 65 63 65 67 69 75 78 77 76 77 80 80 79 79 78 75 75 77 78 78 79 77 62 58 55 54 54 53 49 45 44 43 44 47 47
Wind_Direction
276 276 275 274 274 274 275 279 280 278 272 268 266 266 269 273 278 278 268 265 264 264 264 264 265 266 267 267 267 268 267 274 271 270 269 266 268 267 267 268 269 274 271
277 275 273 271 270 272 272 271 275 272 272 270 267 265 265 266 268 271 273 274 275 270 269 267 265 265 274 267 267 266 266 265 265 265 274 274 270 265 268 268 267 267 267
277 274 272 270 270 271 270 269 267 267 269 270 269 268 266 265 265 264 264 264 268 271 273 272 270 269 269 269 269 268 267 267 266 265 268 267 267 266 268 266 266 267 267
275 272 269 268 268 272 267 266 266 269 268 266 265 264 265 265 265 264 263 262 262 267 265 265 266 267 268 271 271 270 270 273 269 268 269 269 267 267 268 266 265 273 267
270 271 271 274 274 271 271 271 274 265 264 264 263 263 263 263 263 263 264 264 264 264 263 264 265 263 263 264 265 266 267 268 268 269 270 270 270 270 270 270 271 276 271
271 271 273 272 271 270 271 271 268 266 264 263 263 263 264 263 263 263 263 266 264 264 264 265 264 264 263 263 264 264 264 264 264 263 262 262 263 263 264 264 265 265 266
272 273 274 272 271 270 270 269 267 266 267 266 266 265 264 263 268 266 266 265 265 265 269 267 267 266 266 266 266 266 266 267 266 265 265 265 265 265 265 266 265 264 264
274 273 272 271 271 271 271 269 268 269 267 266 266 266 266 266 266 267 265 266 268 269 267 266 268 268 269 269 268 268 269 270 272 270 270 272 271 275 274 272 269 270 269
271 274 275 275 276 274 271 270 272 270 270 270 269 269 272 272 271 273 272 273 271 272 271 271 272 269 272 271 271 270 273 274 272 277 272 272 271 269 268 269 269 269 267
272 272 264 273 273 262 280 279 280 277 283 284 283 282 282 282 281 280 283 276 282 280 277 277 276 281 280 279 281 276 275 272 272 276 272 271 271 268 268 268 266 265 264
275 271 273 275 277 278 272 279 279 280 281 281 283 283 283 282 282 281 277 283 281 282 283 276 280 281 281 279 278 276 279 279 282 275 273 274 277 282 272 272 276 280 272
274 275 276 277 278 270 279 279 280 281 281 282 282 281 281 283 283 284 283 283 281 281 278 279 279 285 282 283 279 281 280 285 286 280 284 283 282 279 282 283 282 270 280
274 275 276 277 277 277 278 279 280 278 281 282 283 283 283 283 284 284 284 284 280 280 286 287 284 286 288 288 289 287 287 288 287 287 285 282 281 280 279 279 278 280 281
272 274 275 276 276 277 278 278 279 280 280 281 283 284 284 284 284 284 283 286 287 287 289 289 289 289 287 288 287 287 286 286 285 283 281 284 283 281 284 286 286 287 289
274 274 274 274 275 277 279 280 281 281 283 283 283 283 284 279 284 283 286 286 287 287 287 288 287 287 286 288 287 286 287 281 283 282 282 283 284 283 287 282 281 288 286
274 276 277 278 278 279 279 278 280 280 281 282 282 281 284 285 285 285 287 287 287 289 289 289 288 288 287 287 286 283 285 282 284 282 281 287 287 289 289 289 287 286 279
276 276 276 277 278 279 278 278 269 280 281 282 283 284 284 283 284 286 286 286 287 287 286 283 288 286 287 282 285 281 288 285 284 285 285 286 290 282 291 281 281 287 283
273 275 276 276 277 278 279 278 278 279 280 280 281 282 283 284 283 285 285 285 286 286 278 279 281 278 279 278 280 286 281 282 283 285 289 287 283 284 285 286 283 281 279
273 274 275 275 275 275 276 277 277 277 278 279 278 279 282 281 281 282 283 280 283 274 279 275 278 275 278 279 278 282 284 286 282 287 287 287 286 286 285 283 281 280 278
268 269 270 270 272 271 274 274 274 275 275 275 275 272 277 278 280 280 276 276 275 275 281 277 278 278 286 287 288 278 279 288 288 288 285 286 286 285 283 282 281 279 278
268 268 266 265 266 268 274 269 272 274 271 271 272 273 272 272 273 274 276 277 282 279 287 281 282 276 288 288 287 286 286 286 285 284 284 284 284 284 282 281 280 279 276
273 273 273 273 271 273 272 274 274 270 275 275 270 271 278 279 279 279 279 279 280 280 282 284 285 287 286 285 287 288 287 285 284 283 283 283 282 282 281 279 278 277 275
274 274 274 275 275 275 276 276 277 277 277 278 278 278 278 277 277 278 278 279 281 281 282 282 282 284 285 286 285 284 283 283 283 284 281 280 281 280 279 277 276 273 269
273 272 271 272 271 271 272 272 273 273 274 275 275 275 276 277 276 277 279 278 279 280 281 283 285 287 287 285 284 284 283 283 284 284 283 282 280 278 276 273 271 267 265
272 272 272 269 270 270 271 271 271 272 273 272 271 273 273 273 273 275 276 277 280 281 282 284 285 285 283 283 284 285 285 284 285 282 280 277 275 273 273 272 272 261 257
269 268 267 267 267 268 269 266 269 270 270 272 271 274 274 276 277 277 278 280 281 282 283 283 282 282 283 284 284 285 284 283 282 282 282 281 280 278 275 274 270 265 261